Saint Bonnet de Bellac- Haute Vienne - France
Donnes mto: lundi, 19/12/2011
Date Horaire Temp. E. Hum. E. P.atmo. Pluie Vent Direction Direction Ensoleilleme Solaire P. de rose Temp au vent Rafales
19/12/2011 00:00 0,9 C 93 % 1020,3 hPa 0,0 mm 3,2 km/h (1 Bft) SO 225 0 min 0 W/m -0,1 C 0,9 C 3,2 km/h (1 Bft)
19/12/2011 00:05 1,1 C 93 % 1020,4 hPa 0,0 mm 0,7 km/h (0 Bft) O-SO 247 0 min 0 W/m 0,1 C 1,1 C 0,7 km/h (0 Bft)
19/12/2011 00:10 1,1 C 93 % 1020,3 hPa 0,0 mm 0,7 km/h (0 Bft) SO 225 0 min 0 W/m 0,1 C 1,1 C 1,4 km/h (1 Bft)
19/12/2011 00:15 1,1 C 93 % 1020,3 hPa 0,0 mm 1,1 km/h (1 Bft) O-SO 247 0 min 0 W/m 0,1 C 1,1 C 4,3 km/h (1 Bft)
19/12/2011 00:20 1,2 C 93 % 1020,3 hPa 0,0 mm 2,9 km/h (1 Bft) SO 225 0 min 0 W/m 0,2 C 1,2 C 4,0 km/h (1 Bft)
19/12/2011 00:25 1,3 C 93 % 1020,3 hPa 0,0 mm 2,5 km/h (1 Bft) O-SO 247 0 min 0 W/m 0,3 C 1,3 C 6,5 km/h (2 Bft)
19/12/2011 00:30 1,3 C 93 % 1020,3 hPa 0,0 mm 0,7 km/h (0 Bft) S-SO 202 0 min 0 W/m 0,3 C 1,3 C 3,6 km/h (1 Bft)
19/12/2011 00:35 1,3 C 93 % 1020,3 hPa 0,0 mm 2,2 km/h (1 Bft) SO 225 0 min 0 W/m 0,3 C 1,3 C 6,1 km/h (2 Bft)
19/12/2011 00:40 1,4 C 93 % 1020,1 hPa 0,0 mm 5,0 km/h (1 Bft) O-SO 247 0 min 0 W/m 0,4 C -0,0 C 11,2 km/h (2 Bft)
19/12/2011 00:45 1,4 C 93 % 1020,1 hPa 0,0 mm 4,7 km/h (1 Bft) O-SO 247 0 min 0 W/m 0,4 C 0,1 C 11,2 km/h (2 Bft)
19/12/2011 00:50 1,5 C 93 % 1020,0 hPa 0,0 mm 3,6 km/h (1 Bft) SO 225 0 min 0 W/m 0,5 C 1,5 C 4,3 km/h (1 Bft)
19/12/2011 00:55 1,6 C 92 % 1019,9 hPa 0,0 mm 7,6 km/h (2 Bft) SO 225 0 min 0 W/m 0,4 C -0,7 C 11,5 km/h (2 Bft)
19/12/2011 01:00 1,8 C 92 % 1019,9 hPa 0,0 mm 5,4 km/h (2 Bft) O-SO 247 0 min 0 W/m 0,6 C 0,3 C 9,4 km/h (2 Bft)
19/12/2011 01:05 1,8 C 92 % 1019,8 hPa 0,0 mm 4,7 km/h (1 Bft) SO 225 0 min 0 W/m 0,6 C 0,6 C 7,6 km/h (2 Bft)
19/12/2011 01:10 1,8 C 92 % 1019,8 hPa 0,0 mm 1,8 km/h (1 Bft) SO 225 0 min 0 W/m 0,6 C 1,8 C 5,8 km/h (2 Bft)
19/12/2011 01:15 1,9 C 91 % 1019,8 hPa 0,0 mm 3,2 km/h (1 Bft) SO 225 0 min 0 W/m 0,6 C 1,9 C 3,6 km/h (1 Bft)
19/12/2011 01:20 1,9 C 91 % 1019,7 hPa 0,0 mm 7,2 km/h (2 Bft) O-SO 247 0 min 0 W/m 0,6 C -0,3 C 15,1 km/h (3 Bft)
19/12/2011 01:25 1,9 C 91 % 1019,7 hPa 0,0 mm 7,2 km/h (2 Bft) SO 225 0 min 0 W/m 0,6 C -0,3 C 11,5 km/h (2 Bft)
19/12/2011 01:30 2,0 C 90 % 1019,6 hPa 0,0 mm 2,5 km/h (1 Bft) SO 225 0 min 0 W/m 0,5 C 2,0 C 4,0 km/h (1 Bft)
19/12/2011 01:35 2,0 C 90 % 1019,7 hPa 0,0 mm 0,7 km/h (0 Bft) O-SO 247 0 min 0 W/m 0,5 C 2,0 C 6,1 km/h (2 Bft)
19/12/2011 01:40 2,0 C 90 % 1019,6 hPa 0,0 mm 1,4 km/h (1 Bft) O-SO 247 0 min 0 W/m 0,5 C 2,0 C 4,0 km/h (1 Bft)
19/12/2011 01:45 2,0 C 90 % 1019,5 hPa 0,0 mm 0,4 km/h (0 Bft) O-SO 247 0 min 0 W/m 0,5 C 2,0 C 3,2 km/h (1 Bft)
19/12/2011 01:50 2,0 C 90 % 1019,6 hPa 0,1 mm 0,7 km/h (0 Bft) O-SO 247 0 min 0 W/m 0,5 C 2,0 C 7,2 km/h (2 Bft)
19/12/2011 01:55 2,0 C 91 % 1019,6 hPa 0,0 mm 4,0 km/h (1 Bft) O-SO 247 0 min 0 W/m 0,7 C 2,0 C 10,8 km/h (2 Bft)
19/12/2011 02:02 2,0 C 91 % 1019,6 hPa 0,0 mm 2,2 km/h (1 Bft) SO 225 0 min 0 W/m 0,7 C 2,0 C 6,5 km/h (2 Bft)
19/12/2011 02:05 2,0 C 91 % 1019,6 hPa 0,0 mm 2,2 km/h (1 Bft) S 180 0 min 0 W/m 0,7 C 2,0 C 8,6 km/h (2 Bft)
19/12/2011 02:10 2,0 C 91 % 1019,6 hPa 0,0 mm 5,0 km/h (1 Bft) SO 225 0 min 0 W/m 0,7 C 0,7 C 9,0 km/h (2 Bft)
19/12/2011 02:15 2,1 C 91 % 1019,7 hPa 0,0 mm 2,2 km/h (1 Bft) O-SO 247 0 min 0 W/m 0,8 C 2,1 C 8,6 km/h (2 Bft)
19/12/2011 02:20 2,1 C 91 % 1019,6 hPa 0,1 mm 2,2 km/h (1 Bft) O 270 0 min 0 W/m 0,8 C 2,1 C 4,0 km/h (1 Bft)
19/12/2011 02:25 2,1 C 92 % 1019,5 hPa 0,0 mm 4,0 km/h (1 Bft) SO 225 0 min 0 W/m 0,9 C 2,1 C 8,3 km/h (2 Bft)
19/12/2011 02:30 2,1 C 92 % 1019,6 hPa 0,0 mm 2,5 km/h (1 Bft) O-SO 247 0 min 0 W/m 0,9 C 2,1 C 2,5 km/h (1 Bft)
19/12/2011 02:35 2,1 C 92 % 1019,6 hPa 0,0 mm 2,2 km/h (1 Bft) O 270 0 min 0 W/m 0,9 C 2,1 C 6,1 km/h (2 Bft)
19/12/2011 02:40 2,1 C 92 % 1019,7 hPa 0,0 mm 3,6 km/h (1 Bft) SO 225 0 min 0 W/m 0,9 C 2,1 C 14,0 km/h (3 Bft)
19/12/2011 02:45 2,1 C 92 % 1019,6 hPa 0,0 mm 3,2 km/h (1 Bft) SO 225 0 min 0 W/m 0,9 C 2,1 C 7,9 km/h (2 Bft)
19/12/2011 02:50 2,1 C 92 % 1019,5 hPa 0,1 mm 2,9 km/h (1 Bft) O-SO 247 0 min 0 W/m 0,9 C 2,1 C 2,9 km/h (1 Bft)
19/12/2011 02:55 2,0 C 92 % 1019,6 hPa 0,0 mm 3,2 km/h (1 Bft) O-SO 247 0 min 0 W/m 0,8 C 2,0 C 8,6 km/h (2 Bft)
19/12/2011 03:00 2,0 C 92 % 1019,6 hPa 0,0 mm 0,0 km/h (0 Bft) O-SO 247 0 min 0 W/m 0,8 C 2,0 C 1,4 km/h (1 Bft)
19/12/2011 03:05 2,0 C 92 % 1019,5 hPa 0,0 mm 1,8 km/h (1 Bft) SO 225 0 min 0 W/m 0,8 C 2,0 C 4,0 km/h (1 Bft)
19/12/2011 03:10 1,9 C 92 % 1019,5 hPa 0,0 mm 2,2 km/h (1 Bft) SO 225 0 min 0 W/m 0,7 C 1,9 C 6,8 km/h (2 Bft)
19/12/2011 03:15 2,0 C 92 % 1019,6 hPa 0,0 mm 1,8 km/h (1 Bft) S-SO 202 0 min 0 W/m 0,8 C 2,0 C 4,0 km/h (1 Bft)
19/12/2011 03:20 2,0 C 92 % 1019,4 hPa 0,0 mm 2,9 km/h (1 Bft) SO 225 0 min 0 W/m 0,8 C 2,0 C 8,3 km/h (2 Bft)
19/12/2011 03:25 2,0 C 93 % 1019,4 hPa 0,0 mm 0,7 km/h (0 Bft) SO 225 0 min 0 W/m 1,0 C 2,0 C 3,6 km/h (1 Bft)
19/12/2011 03:30 2,1 C 93 % 1019,4 hPa 0,0 mm 2,2 km/h (1 Bft) S-SO 202 0 min 0 W/m 1,1 C 2,1 C 3,6 km/h (1 Bft)
19/12/2011 03:35 2,1 C 93 % 1019,5 hPa 0,0 mm 1,8 km/h (1 Bft) SO 225 0 min 0 W/m 1,1 C 2,1 C 4,0 km/h (1 Bft)
19/12/2011 03:40 2,1 C 93 % 1019,4 hPa 0,0 mm 2,9 km/h (1 Bft) SO 225 0 min 0 W/m 1,1 C 2,1 C 3,6 km/h (1 Bft)
19/12/2011 03:45 2,1 C 93 % 1019,4 hPa 0,0 mm 4,0 km/h (1 Bft) SO 225 0 min 0 W/m 1,1 C 2,1 C 4,3 km/h (1 Bft)
19/12/2011 03:50 2,1 C 93 % 1019,3 hPa 0,0 mm 1,4 km/h (1 Bft) SO 225 0 min 0 W/m 1,1 C 2,1 C 4,0 km/h (1 Bft)
19/12/2011 03:55 2,1 C 93 % 1019,3 hPa 0,0 mm 2,5 km/h (1 Bft) S-SO 202 0 min 0 W/m 1,1 C 2,1 C 6,5 km/h (2 Bft)
19/12/2011 04:00 2,1 C 93 % 1019,3 hPa 0,0 mm 0,4 km/h (0 Bft) S-SO 202 0 min 0 W/m 1,1 C 2,1 C 3,2 km/h (1 Bft)
19/12/2011 04:05 2,0 C 93 % 1019,3 hPa 0,0 mm 2,2 km/h (1 Bft) SO 225 0 min 0 W/m 1,0 C 2,0 C 4,0 km/h (1 Bft)
19/12/2011 04:10 1,9 C 93 % 1019,2 hPa 0,0 mm 1,1 km/h (1 Bft) SO 225 0 min 0 W/m 0,9 C 1,9 C 3,2 km/h (1 Bft)
19/12/2011 04:15 1,8 C 93 % 1019,3 hPa 0,0 mm 0,0 km/h (0 Bft) SO 225 0 min 0 W/m 0,8 C 1,8 C 0,0 km/h (0 Bft)
19/12/2011 04:20 1,8 C 93 % 1019,3 hPa 0,0 mm 0,0 km/h (0 Bft) O-SO 247 0 min 0 W/m 0,8 C 1,8 C 0,0 km/h (0 Bft)
19/12/2011 04:25 1,7 C 93 % 1019,3 hPa 0,0 mm 0,0 km/h (0 Bft) O-NO 292 0 min 0 W/m 0,7 C 1,7 C 0,0 km/h (0 Bft)
19/12/2011 04:30 1,6 C 93 % 1019,1 hPa 0,0 mm 0,0 km/h (0 Bft) SO 225 0 min 0 W/m 0,6 C 1,6 C 3,2 km/h (1 Bft)
19/12/2011 04:35 1,5 C 93 % 1019,1 hPa 0,0 mm 0,0 km/h (0 Bft) S-SO 202 0 min 0 W/m 0,5 C 1,5 C 0,0 km/h (0 Bft)
19/12/2011 04:40 1,4 C 93 % 1019,1 hPa 0,0 mm 0,0 km/h (0 Bft) SO 225 0 min 0 W/m 0,4 C 1,4 C 0,0 km/h (0 Bft)
19/12/2011 04:45 1,4 C 93 % 1019,1 hPa 0,0 mm 0,0 km/h (0 Bft) SO 225 0 min 0 W/m 0,4 C 1,4 C 0,0 km/h (0 Bft)
19/12/2011 04:50 1,4 C 93 % 1019,1 hPa 0,0 mm 0,0 km/h (0 Bft) SO 225 0 min 0 W/m 0,4 C 1,4 C 0,0 km/h (0 Bft)
19/12/2011 04:55 1,4 C 93 % 1019,2 hPa 0,0 mm 1,1 km/h (1 Bft) SO 225 0 min 0 W/m 0,4 C 1,4 C 4,3 km/h (1 Bft)
19/12/2011 05:00 1,4 C 93 % 1019,1 hPa 0,0 mm 1,8 km/h (1 Bft) SO 225 0 min 0 W/m 0,4 C 1,4 C 1,8 km/h (1 Bft)
19/12/2011 05:05 1,4 C 93 % 1019,3 hPa 0,0 mm 1,4 km/h (1 Bft) SO 225 0 min 0 W/m 0,4 C 1,4 C 4,3 km/h (1 Bft)
19/12/2011 05:10 1,5 C 93 % 1019,4 hPa 0,0 mm 0,0 km/h (0 Bft) SO 225 0 min 0 W/m 0,5 C 1,5 C 0,0 km/h (0 Bft)
19/12/2011 05:15 1,4 C 93 % 1019,5 hPa 0,0 mm 0,4 km/h (0 Bft) SO 225 0 min 0 W/m 0,4 C 1,4 C 2,9 km/h (1 Bft)
19/12/2011 05:20 1,4 C 93 % 1019,4 hPa 0,1 mm 0,7 km/h (0 Bft) S-SO 202 0 min 0 W/m 0,4 C 1,4 C 2,9 km/h (1 Bft)
19/12/2011 05:25 1,5 C 94 % 1019,5 hPa 0,0 mm 1,1 km/h (1 Bft) SO 225 0 min 0 W/m 0,6 C 1,5 C 1,1 km/h (1 Bft)
19/12/2011 05:30 1,6 C 94 % 1019,6 hPa 0,0 mm 0,4 km/h (0 Bft) SO 225 0 min 0 W/m 0,7 C 1,6 C 3,6 km/h (1 Bft)
19/12/2011 05:35 1,7 C 94 % 1019,5 hPa 0,0 mm 0,0 km/h (0 Bft) SO 225 0 min 0 W/m 0,8 C 1,7 C 0,0 km/h (0 Bft)
19/12/2011 05:40 1,7 C 94 % 1019,5 hPa 0,0 mm 0,4 km/h (0 Bft) S-SO 202 0 min 0 W/m 0,8 C 1,7 C 0,4 km/h (0 Bft)
19/12/2011 05:45 1,8 C 94 % 1019,6 hPa 0,0 mm 0,4 km/h (0 Bft) SO 225 0 min 0 W/m 0,9 C 1,8 C 3,6 km/h (1 Bft)
19/12/2011 05:50 1,8 C 94 % 1019,6 hPa 0,0 mm 0,4 km/h (0 Bft) SO 225 0 min 0 W/m 0,9 C 1,8 C 0,4 km/h (0 Bft)
19/12/2011 05:55 1,8 C 94 % 1019,7 hPa 0,0 mm 2,5 km/h (1 Bft) SO 225 0 min 0 W/m 0,9 C 1,8 C 4,0 km/h (1 Bft)
19/12/2011 06:00 1,8 C 94 % 1019,7 hPa 0,0 mm 0,0 km/h (0 Bft) SO 225 0 min 0 W/m 0,9 C 1,8 C 0,0 km/h (0 Bft)
19/12/2011 06:05 1,8 C 94 % 1019,8 hPa 0,0 mm 1,8 km/h (1 Bft) S-SO 202 0 min 0 W/m 0,9 C 1,8 C 4,0 km/h (1 Bft)
19/12/2011 06:10 1,8 C 94 % 1019,8 hPa 0,0 mm 0,0 km/h (0 Bft) SO 225 0 min 0 W/m 0,9 C 1,8 C 0,0 km/h (0 Bft)
19/12/2011 06:15 1,8 C 94 % 1019,9 hPa 0,0 mm 1,4 km/h (1 Bft) SO 225 0 min 0 W/m 0,9 C 1,8 C 1,4 km/h (1 Bft)
19/12/2011 06:20 1,8 C 94 % 1019,9 hPa 0,0 mm 1,8 km/h (1 Bft) SO 225 0 min 0 W/m 0,9 C 1,8 C 4,0 km/h (1 Bft)
19/12/2011 06:25 1,8 C 94 % 1019,9 hPa 0,0 mm 0,4 km/h (0 Bft) SO 225 0 min 0 W/m 0,9 C 1,8 C 3,2 km/h (1 Bft)
19/12/2011 06:30 1,8 C 94 % 1019,9 hPa 0,0 mm 0,4 km/h (0 Bft) SO 225 0 min 0 W/m 0,9 C 1,8 C 3,6 km/h (1 Bft)
19/12/2011 06:35 1,8 C 94 % 1019,9 hPa 0,0 mm 0,4 km/h (0 Bft) SO 225 0 min 0 W/m 0,9 C 1,8 C 3,2 km/h (1 Bft)
19/12/2011 06:40 1,8 C 94 % 1019,9 hPa 0,0 mm 1,4 km/h (1 Bft) SO 225 0 min 0 W/m 0,9 C 1,8 C 1,4 km/h (1 Bft)
19/12/2011 06:45 1,8 C 94 % 1019,9 hPa 0,0 mm 0,0 km/h (0 Bft) SO 225 0 min 0 W/m 0,9 C 1,8 C 0,0 km/h (0 Bft)
19/12/2011 06:50 1,7 C 94 % 1019,9 hPa 0,0 mm 0,7 km/h (0 Bft) O-SO 247 0 min 0 W/m 0,8 C 1,7 C 3,6 km/h (1 Bft)
19/12/2011 06:55 1,7 C 94 % 1020,0 hPa 0,0 mm 0,0 km/h (0 Bft) SO 225 0 min 0 W/m 0,8 C 1,7 C 0,0 km/h (0 Bft)
19/12/2011 07:00 1,6 C 94 % 1019,9 hPa 0,0 mm 0,0 km/h (0 Bft) SO 225 0 min 0 W/m 0,7 C 1,6 C 4,3 km/h (1 Bft)
19/12/2011 07:05 1,6 C 94 % 1020,0 hPa 0,0 mm 0,0 km/h (0 Bft) SO 225 0 min 0 W/m 0,7 C 1,6 C 0,0 km/h (0 Bft)
19/12/2011 07:10 1,6 C 94 % 1020,1 hPa 0,0 mm 1,4 km/h (1 Bft) SO 225 0 min 0 W/m 0,7 C 1,6 C 4,0 km/h (1 Bft)
19/12/2011 07:15 1,5 C 94 % 1020,1 hPa 0,0 mm 0,0 km/h (0 Bft) SO 225 0 min 0 W/m 0,6 C 1,5 C 3,2 km/h (1 Bft)
19/12/2011 07:20 1,5 C 94 % 1020,2 hPa 0,0 mm 0,0 km/h (0 Bft) SO 225 0 min 0 W/m 0,6 C 1,5 C 0,0 km/h (0 Bft)
19/12/2011 07:25 1,4 C 94 % 1020,1 hPa 0,0 mm 0,0 km/h (0 Bft) SO 225 0 min 0 W/m 0,5 C 1,4 C 0,0 km/h (0 Bft)
19/12/2011 07:30 1,4 C 94 % 1020,2 hPa 0,0 mm 0,0 km/h (0 Bft) SO 225 0 min 0 W/m 0,5 C 1,4 C 0,0 km/h (0 Bft)
19/12/2011 07:35 1,3 C 94 % 1020,2 hPa 0,0 mm 0,0 km/h (0 Bft) S-SO 202 0 min 0 W/m 0,4 C 1,3 C 0,0 km/h (0 Bft)
19/12/2011 07:40 1,2 C 94 % 1020,3 hPa 0,0 mm 0,0 km/h (0 Bft) SO 225 0 min 0 W/m 0,3 C 1,2 C 0,0 km/h (0 Bft)
19/12/2011 07:45 1,1 C 94 % 1020,3 hPa 0,0 mm 0,0 km/h (0 Bft) SO 225 0 min 0 W/m 0,2 C 1,1 C 0,0 km/h (0 Bft)
19/12/2011 07:50 1,1 C 94 % 1020,4 hPa 0,0 mm 0,4 km/h (0 Bft) SO 225 0 min 0 W/m 0,2 C 1,1 C 0,4 km/h (0 Bft)
19/12/2011 07:55 1,1 C 94 % 1020,4 hPa 0,0 mm 0,0 km/h (0 Bft) SO 225 0 min 0 W/m 0,2 C 1,1 C 0,0 km/h (0 Bft)
19/12/2011 08:00 1,1 C 95 % 1020,3 hPa 0,0 mm 0,0 km/h (0 Bft) SO 225 0 min 0 W/m 0,4 C 1,1 C 0,0 km/h (0 Bft)
19/12/2011 08:05 1,0 C 94 % 1020,4 hPa 0,0 mm 0,0 km/h (0 Bft) SO 225 0 min 0 W/m 0,1 C 1,0 C 0,0 km/h (0 Bft)
19/12/2011 08:10 0,9 C 95 % 1020,3 hPa 0,0 mm 0,0 km/h (0 Bft) SO 225 0 min 0 W/m 0,2 C 0,9 C 0,0 km/h (0 Bft)
19/12/2011 08:15 0,9 C 95 % 1020,3 hPa 0,0 mm 0,0 km/h (0 Bft) S-SO 202 0 min 0 W/m 0,2 C 0,9 C 0,0 km/h (0 Bft)
19/12/2011 08:20 0,8 C 95 % 1020,4 hPa 0,0 mm 0,0 km/h (0 Bft) S-SO 202 0 min 0 W/m 0,1 C 0,8 C 0,0 km/h (0 Bft)
19/12/2011 08:25 0,8 C 95 % 1020,4 hPa 0,0 mm 0,0 km/h (0 Bft) SO 225 0 min 0 W/m 0,1 C 0,8 C 0,0 km/h (0 Bft)
19/12/2011 08:30 0,8 C 95 % 1020,4 hPa 0,0 mm 0,0 km/h (0 Bft) S-SO 202 0 min 0 W/m 0,1 C 0,8 C 0,0 km/h (0 Bft)
19/12/2011 08:35 0,8 C 95 % 1020,5 hPa 0,0 mm 0,0 km/h (0 Bft) SO 225 0 min 0 W/m 0,1 C 0,8 C 0,0 km/h (0 Bft)
19/12/2011 08:40 0,8 C 95 % 1020,5 hPa 0,0 mm 0,0 km/h (0 Bft) SO 225 0 min 0 W/m 0,1 C 0,8 C 0,0 km/h (0 Bft)
19/12/2011 08:45 0,8 C 95 % 1020,6 hPa 0,0 mm 0,0 km/h (0 Bft) S-SO 202 0 min 0 W/m 0,1 C 0,8 C 2,9 km/h (1 Bft)
19/12/2011 08:50 0,8 C 95 % 1020,7 hPa 0,0 mm 0,0 km/h (0 Bft) S-SO 202 0 min 0 W/m 0,1 C 0,8 C 0,0 km/h (0 Bft)
19/12/2011 08:55 0,8 C 95 % 1020,7 hPa 0,0 mm 0,0 km/h (0 Bft) S-SO 202 0 min 0 W/m 0,1 C 0,8 C 0,0 km/h (0 Bft)
19/12/2011 09:00 0,8 C 95 % 1020,7 hPa 0,0 mm 0,0 km/h (0 Bft) S-SO 202 0 min 0 W/m 0,1 C 0,8 C 0,0 km/h (0 Bft)
19/12/2011 09:05 0,8 C 95 % 1020,8 hPa 0,0 mm 0,0 km/h (0 Bft) S-SO 202 0 min 0 W/m 0,1 C 0,8 C 0,0 km/h (0 Bft)
19/12/2011 09:10 0,8 C 95 % 1020,9 hPa 0,0 mm 0,0 km/h (0 Bft) S-SO 202 0 min 0 W/m 0,1 C 0,8 C 0,0 km/h (0 Bft)
19/12/2011 09:15 0,8 C 95 % 1020,9 hPa 0,0 mm 0,0 km/h (0 Bft) S-SO 202 0 min 0 W/m 0,1 C 0,8 C 0,0 km/h (0 Bft)
19/12/2011 09:20 0,9 C 95 % 1021,1 hPa 0,0 mm 0,0 km/h (0 Bft) S-SO 202 0 min 0 W/m 0,2 C 0,9 C 0,0 km/h (0 Bft)
19/12/2011 09:25 1,1 C 95 % 1021,2 hPa 0,0 mm 0,0 km/h (0 Bft) S-SO 202 0 min 0 W/m 0,4 C 1,1 C 0,0 km/h (0 Bft)
19/12/2011 09:30 1,1 C 95 % 1021,2 hPa 0,0 mm 0,0 km/h (0 Bft) S-SO 202 0 min 0 W/m 0,4 C 1,1 C 0,0 km/h (0 Bft)
19/12/2011 09:35 1,2 C 95 % 1021,3 hPa 0,0 mm 0,0 km/h (0 Bft) S-SO 202 0 min 0 W/m 0,5 C 1,2 C 0,0 km/h (0 Bft)
19/12/2011 09:40 1,3 C 95 % 1021,4 hPa 0,0 mm 0,0 km/h (0 Bft) S-SO 202 0 min 0 W/m 0,6 C 1,3 C 0,0 km/h (0 Bft)
19/12/2011 09:45 1,4 C 95 % 1021,4 hPa 0,0 mm 0,0 km/h (0 Bft) S-SO 202 0 min 0 W/m 0,7 C 1,4 C 0,0 km/h (0 Bft)
19/12/2011 09:50 1,4 C 95 % 1021,5 hPa 0,0 mm 0,0 km/h (0 Bft) S-SO 202 0 min 0 W/m 0,7 C 1,4 C 0,0 km/h (0 Bft)
19/12/2011 09:55 1,5 C 95 % 1021,5 hPa 0,0 mm 0,4 km/h (0 Bft) S-SO 202 0 min 0 W/m 0,8 C 1,5 C 3,2 km/h (1 Bft)
19/12/2011 10:00 1,7 C 95 % 1021,5 hPa 0,0 mm 0,0 km/h (0 Bft) S-SO 202 0 min 0 W/m 1,0 C 1,7 C 0,0 km/h (0 Bft)
19/12/2011 10:05 1,8 C 95 % 1021,6 hPa 0,0 mm 0,0 km/h (0 Bft) S-SO 202 0 min 0 W/m 1,1 C 1,8 C 0,0 km/h (0 Bft)
19/12/2011 10:10 1,8 C 95 % 1021,6 hPa 0,0 mm 0,0 km/h (0 Bft) N 360 0 min 0 W/m 1,1 C 1,8 C 0,0 km/h (0 Bft)
19/12/2011 10:15 1,9 C 95 % 1021,6 hPa 0,0 mm 0,0 km/h (0 Bft) S-SO 202 0 min 0 W/m 1,2 C 1,9 C 0,0 km/h (0 Bft)
19/12/2011 10:20 2,1 C 95 % 1021,7 hPa 0,0 mm 0,0 km/h (0 Bft) S-SO 202 0 min 0 W/m 1,4 C 2,1 C 0,0 km/h (0 Bft)
19/12/2011 10:25 2,2 C 95 % 1021,7 hPa 0,0 mm 0,0 km/h (0 Bft) S-SO 202 0 min 0 W/m 1,5 C 2,2 C 0,0 km/h (0 Bft)
19/12/2011 10:30 2,3 C 95 % 1021,7 hPa 0,0 mm 0,0 km/h (0 Bft) S-SO 202 0 min 0 W/m 1,6 C 2,3 C 0,0 km/h (0 Bft)
19/12/2011 10:35 2,3 C 95 % 1021,8 hPa 0,0 mm 0,0 km/h (0 Bft) S-SO 202 0 min 0 W/m 1,6 C 2,3 C 0,0 km/h (0 Bft)
19/12/2011 10:40 2,5 C 95 % 1021,7 hPa 0,0 mm 0,0 km/h (0 Bft) S-SO 202 0 min 0 W/m 1,8 C 2,5 C 0,0 km/h (0 Bft)
19/12/2011 10:45 2,5 C 95 % 1021,7 hPa 0,0 mm 0,0 km/h (0 Bft) SO 225 0 min 0 W/m 1,8 C 2,5 C 0,0 km/h (0 Bft)
19/12/2011 10:50 2,6 C 95 % 1021,9 hPa 0,0 mm 0,0 km/h (0 Bft) SO 225 0 min 0 W/m 1,9 C 2,6 C 0,0 km/h (0 Bft)
19/12/2011 10:55 2,8 C 95 % 1021,9 hPa 0,0 mm 0,7 km/h (0 Bft) S 180 0 min 0 W/m 2,1 C 2,8 C 4,0 km/h (1 Bft)
19/12/2011 11:00 2,8 C 95 % 1022,0 hPa 0,0 mm 0,0 km/h (0 Bft) S 180 0 min 0 W/m 2,1 C 2,8 C 0,0 km/h (0 Bft)
19/12/2011 11:05 2,8 C 95 % 1022,0 hPa 0,0 mm 0,0 km/h (0 Bft) S 180 0 min 0 W/m 2,1 C 2,8 C 0,0 km/h (0 Bft)
19/12/2011 11:10 2,8 C 95 % 1022,0 hPa 0,0 mm 0,0 km/h (0 Bft) S 180 0 min 0 W/m 2,1 C 2,8 C 0,0 km/h (0 Bft)
19/12/2011 11:15 2,9 C 95 % 1022,0 hPa 0,0 mm 0,4 km/h (0 Bft) S 180 0 min 0 W/m 2,2 C 2,9 C 3,2 km/h (1 Bft)
19/12/2011 11:20 2,9 C 95 % 1022,0 hPa 0,0 mm 0,4 km/h (0 Bft) S 180 0 min 0 W/m 2,2 C 2,9 C 3,2 km/h (1 Bft)
19/12/2011 11:25 2,9 C 95 % 1021,9 hPa 0,0 mm 0,0 km/h (0 Bft) S 180 0 min 0 W/m 2,2 C 2,9 C 0,0 km/h (0 Bft)
19/12/2011 11:30 3,1 C 95 % 1021,9 hPa 0,0 mm 0,0 km/h (0 Bft) S 180 0 min 0 W/m 2,4 C 3,1 C 0,0 km/h (0 Bft)
19/12/2011 11:35 3,1 C 95 % 1021,8 hPa 0,0 mm 0,0 km/h (0 Bft) S-SE 157 0 min 0 W/m 2,4 C 3,1 C 2,9 km/h (1 Bft)
19/12/2011 11:40 3,1 C 95 % 1021,8 hPa 0,0 mm 0,0 km/h (0 Bft) S-SE 157 0 min 0 W/m 2,4 C 3,1 C 0,0 km/h (0 Bft)
19/12/2011 11:45 3,1 C 95 % 1021,8 hPa 0,0 mm 0,0 km/h (0 Bft) S-SE 157 0 min 0 W/m 2,4 C 3,1 C 0,0 km/h (0 Bft)
19/12/2011 11:50 3,1 C 95 % 1021,8 hPa 0,0 mm 0,4 km/h (0 Bft) S-SO 202 0 min 0 W/m 2,4 C 3,1 C 0,4 km/h (0 Bft)
19/12/2011 11:55 3,1 C 95 % 1021,7 hPa 0,0 mm 1,4 km/h (1 Bft) S-SE 157 0 min 0 W/m 2,4 C 3,1 C 4,0 km/h (1 Bft)
19/12/2011 12:00 3,2 C 95 % 1021,8 hPa 0,0 mm 0,0 km/h (0 Bft) S-SE 157 0 min 0 W/m 2,5 C 3,2 C 0,0 km/h (0 Bft)
19/12/2011 12:05 3,3 C 95 % 1021,8 hPa 0,0 mm 2,2 km/h (1 Bft) S 180 0 min 0 W/m 2,6 C 3,3 C 6,5 km/h (2 Bft)
19/12/2011 12:10 3,3 C 95 % 1021,6 hPa 0,0 mm 0,0 km/h (0 Bft) S-SO 202 0 min 0 W/m 2,6 C 3,3 C 0,0 km/h (0 Bft)
19/12/2011 12:15 3,4 C 95 % 1021,6 hPa 0,0 mm 0,4 km/h (0 Bft) SO 225 0 min 0 W/m 2,7 C 3,4 C 3,2 km/h (1 Bft)
19/12/2011 12:20 3,6 C 95 % 1021,6 hPa 0,0 mm 2,5 km/h (1 Bft) S-SO 202 0 min 0 W/m 2,9 C 3,6 C 4,3 km/h (1 Bft)
19/12/2011 12:25 3,7 C 95 % 1021,6 hPa 0,0 mm 1,4 km/h (1 Bft) O-SO 247 0 min 0 W/m 3,0 C 3,7 C 1,4 km/h (1 Bft)
19/12/2011 12:30 3,8 C 95 % 1021,7 hPa 0,0 mm 2,5 km/h (1 Bft) SO 225 0 min 0 W/m 3,1 C 3,8 C 6,1 km/h (2 Bft)
19/12/2011 12:35 3,9 C 95 % 1021,6 hPa 0,0 mm 3,2 km/h (1 Bft) SO 225 0 min 0 W/m 3,2 C 3,9 C 4,3 km/h (1 Bft)
19/12/2011 12:40 4,1 C 95 % 1021,6 hPa 0,0 mm 3,2 km/h (1 Bft) S-SO 202 0 min 0 W/m 3,4 C 4,1 C 4,3 km/h (1 Bft)
19/12/2011 12:45 4,2 C 94 % 1021,5 hPa 0,0 mm 3,6 km/h (1 Bft) S-SO 202 0 min 0 W/m 3,3 C 4,2 C 4,3 km/h (1 Bft)
19/12/2011 12:50 4,2 C 94 % 1021,4 hPa 0,0 mm 1,4 km/h (1 Bft) S-SO 202 0 min 0 W/m 3,3 C 4,2 C 4,0 km/h (1 Bft)
19/12/2011 12:55 4,3 C 94 % 1021,4 hPa 0,0 mm 0,0 km/h (0 Bft) S 180 0 min 0 W/m 3,4 C 4,3 C 3,2 km/h (1 Bft)
19/12/2011 13:00 4,6 C 94 % 1021,3 hPa 0,0 mm 0,7 km/h (0 Bft) S-SE 157 0 min 0 W/m 3,7 C 4,6 C 0,7 km/h (0 Bft)
19/12/2011 13:05 4,6 C 93 % 1021,3 hPa 0,0 mm 0,4 km/h (0 Bft) S-SO 202 0 min 0 W/m 3,6 C 4,6 C 3,2 km/h (1 Bft)
19/12/2011 13:10 4,6 C 93 % 1021,2 hPa 0,0 mm 0,0 km/h (0 Bft) S-SO 202 0 min 0 W/m 3,6 C 4,6 C 4,3 km/h (1 Bft)
19/12/2011 13:15 4,6 C 92 % 1021,1 hPa 0,0 mm 2,9 km/h (1 Bft) S-SO 202 0 min 0 W/m 3,4 C 4,6 C 2,9 km/h (1 Bft)
19/12/2011 13:20 4,6 C 92 % 1021,0 hPa 0,0 mm 1,4 km/h (1 Bft) SO 225 0 min 0 W/m 3,4 C 4,6 C 4,3 km/h (1 Bft)
19/12/2011 13:25 4,6 C 92 % 1021,0 hPa 0,0 mm 2,9 km/h (1 Bft) S 180 0 min 0 W/m 3,4 C 4,6 C 4,7 km/h (1 Bft)
19/12/2011 13:30 4,6 C 92 % 1021,0 hPa 0,0 mm 0,0 km/h (0 Bft) O-SO 247 0 min 0 W/m 3,4 C 4,6 C 0,0 km/h (0 Bft)
19/12/2011 13:35 4,7 C 92 % 1020,9 hPa 0,0 mm 0,4 km/h (0 Bft) S-SO 202 0 min 0 W/m 3,5 C 4,7 C 3,6 km/h (1 Bft)
19/12/2011 13:40 4,8 C 92 % 1020,8 hPa 0,0 mm 0,7 km/h (0 Bft) SO 225 0 min 0 W/m 3,6 C 4,8 C 0,7 km/h (0 Bft)
19/12/2011 13:45 4,8 C 91 % 1020,9 hPa 0,0 mm 1,1 km/h (1 Bft) SO 225 0 min 0 W/m 3,5 C 4,8 C 1,1 km/h (1 Bft)
19/12/2011 13:50 4,8 C 91 % 1020,8 hPa 0,0 mm 1,1 km/h (1 Bft) SO 225 0 min 0 W/m 3,5 C 4,8 C 4,0 km/h (1 Bft)
19/12/2011 13:55 4,8 C 91 % 1020,7 hPa 0,0 mm 0,4 km/h (0 Bft) SO 225 0 min 0 W/m 3,5 C 4,8 C 3,2 km/h (1 Bft)
19/12/2011 14:00 4,8 C 90 % 1020,6 hPa 0,0 mm 0,0 km/h (0 Bft) S-SO 202 0 min 0 W/m 3,3 C 4,8 C 0,0 km/h (0 Bft)
19/12/2011 14:05 4,9 C 91 % 1020,7 hPa 0,0 mm 2,9 km/h (1 Bft) O-SO 247 0 min 0 W/m 3,6 C 4,9 C 4,3 km/h (1 Bft)
19/12/2011 14:10 4,9 C 90 % 1020,7 hPa 0,0 mm 3,2 km/h (1 Bft) S-SO 202 0 min 0 W/m 3,4 C 4,9 C 4,0 km/h (1 Bft)
19/12/2011 14:15 4,9 C 90 % 1020,6 hPa 0,0 mm 1,1 km/h (1 Bft) S-SO 202 0 min 0 W/m 3,4 C 4,9 C 1,4 km/h (1 Bft)
19/12/2011 14:20 5,1 C 90 % 1020,6 hPa 0,0 mm 0,4 km/h (0 Bft) S-SO 202 0 min 0 W/m 3,6 C 5,1 C 3,2 km/h (1 Bft)
19/12/2011 14:25 5,1 C 90 % 1020,6 hPa 0,0 mm 2,2 km/h (1 Bft) S 180 0 min 0 W/m 3,6 C 5,1 C 6,8 km/h (2 Bft)
19/12/2011 14:30 5,2 C 90 % 1020,6 hPa 0,0 mm 2,2 km/h (1 Bft) SO 225 0 min 0 W/m 3,7 C 5,2 C 4,0 km/h (1 Bft)
19/12/2011 14:35 5,1 C 90 % 1020,5 hPa 0,0 mm 2,5 km/h (1 Bft) S-SO 202 0 min 0 W/m 3,6 C 5,1 C 4,3 km/h (1 Bft)
19/12/2011 14:40 5,2 C 89 % 1020,5 hPa 0,0 mm 2,2 km/h (1 Bft) S-SO 202 0 min 0 W/m 3,5 C 5,2 C 2,9 km/h (1 Bft)
19/12/2011 14:45 5,2 C 89 % 1020,6 hPa 0,0 mm 0,0 km/h (0 Bft) S 180 0 min 0 W/m 3,5 C 5,2 C 0,0 km/h (0 Bft)
19/12/2011 14:50 5,3 C 89 % 1020,6 hPa 0,0 mm 2,2 km/h (1 Bft) S-SO 202 0 min 0 W/m 3,6 C 5,3 C 4,0 km/h (1 Bft)
19/12/2011 14:55 5,3 C 89 % 1020,6 hPa 0,0 mm 0,0 km/h (0 Bft) O-SO 247 0 min 0 W/m 3,6 C 5,3 C 3,6 km/h (1 Bft)
19/12/2011 15:00 5,4 C 89 % 1020,7 hPa 0,0 mm 0,0 km/h (0 Bft) SO 225 0 min 0 W/m 3,7 C 5,4 C 2,9 km/h (1 Bft)
19/12/2011 15:05 5,3 C 89 % 1020,7 hPa 0,0 mm 1,4 km/h (1 Bft) SO 225 0 min 0 W/m 3,6 C 5,3 C 4,3 km/h (1 Bft)
19/12/2011 15:10 5,3 C 89 % 1020,7 hPa 0,0 mm 1,8 km/h (1 Bft) SO 225 0 min 0 W/m 3,6 C 5,3 C 4,3 km/h (1 Bft)
19/12/2011 15:15 5,3 C 89 % 1020,7 hPa 0,0 mm 1,8 km/h (1 Bft) S-SO 202 0 min 0 W/m 3,6 C 5,3 C 3,2 km/h (1 Bft)
19/12/2011 15:20 5,3 C 88 % 1020,6 hPa 0,0 mm 0,7 km/h (0 Bft) S-SO 202 0 min 0 W/m 3,5 C 5,3 C 3,6 km/h (1 Bft)
19/12/2011 15:25 5,2 C 89 % 1020,6 hPa 0,0 mm 1,4 km/h (1 Bft) SO 225 0 min 0 W/m 3,5 C 5,2 C 1,4 km/h (1 Bft)
19/12/2011 15:30 5,2 C 89 % 1020,6 hPa 0,0 mm 4,0 km/h (1 Bft) S-SO 202 0 min 0 W/m 3,5 C 5,2 C 6,8 km/h (2 Bft)
19/12/2011 15:35 5,2 C 89 % 1020,6 hPa 0,0 mm 1,8 km/h (1 Bft) SO 225 0 min 0 W/m 3,5 C 5,2 C 4,0 km/h (1 Bft)
19/12/2011 15:40 5,2 C 89 % 1020,6 hPa 0,0 mm 3,6 km/h (1 Bft) SO 225 0 min 0 W/m 3,5 C 5,2 C 4,3 km/h (1 Bft)
19/12/2011 15:45 5,2 C 89 % 1020,5 hPa 0,0 mm 2,5 km/h (1 Bft) SO 225 0 min 0 W/m 3,5 C 5,2 C 4,3 km/h (1 Bft)
19/12/2011 15:50 5,2 C 89 % 1020,5 hPa 0,0 mm 3,2 km/h (1 Bft) SO 225 0 min 0 W/m 3,5 C 5,2 C 6,1 km/h (2 Bft)
19/12/2011 15:55 5,2 C 89 % 1020,5 hPa 0,0 mm 4,3 km/h (1 Bft) SO 225 0 min 0 W/m 3,5 C 5,2 C 4,3 km/h (1 Bft)
19/12/2011 16:00 5,2 C 89 % 1020,4 hPa 0,0 mm 2,5 km/h (1 Bft) S-SE 157 0 min 0 W/m 3,5 C 5,2 C 3,6 km/h (1 Bft)
19/12/2011 16:05 5,2 C 89 % 1020,4 hPa 0,0 mm 2,9 km/h (1 Bft) SO 225 0 min 0 W/m 3,5 C 5,2 C 4,3 km/h (1 Bft)
19/12/2011 16:10 5,2 C 90 % 1020,3 hPa 0,0 mm 7,2 km/h (2 Bft) SO 225 0 min 0 W/m 3,7 C 3,6 C 11,9 km/h (2 Bft)
19/12/2011 16:15 5,2 C 89 % 1020,3 hPa 0,0 mm 4,3 km/h (1 Bft) S-SO 202 0 min 0 W/m 3,5 C 5,2 C 4,3 km/h (1 Bft)
19/12/2011 16:20 5,2 C 90 % 1020,3 hPa 0,0 mm 3,2 km/h (1 Bft) SO 225 0 min 0 W/m 3,7 C 5,2 C 4,7 km/h (1 Bft)
19/12/2011 16:25 5,2 C 90 % 1020,3 hPa 0,0 mm 6,8 km/h (2 Bft) SO 225 0 min 0 W/m 3,7 C 3,7 C 9,4 km/h (2 Bft)
19/12/2011 16:30 5,2 C 90 % 1020,2 hPa 0,0 mm 4,3 km/h (1 Bft) S-SO 202 0 min 0 W/m 3,7 C 5,2 C 4,3 km/h (1 Bft)
19/12/2011 16:35 5,2 C 90 % 1020,1 hPa 0,0 mm 4,3 km/h (1 Bft) SO 225 0 min 0 W/m 3,7 C 5,2 C 7,2 km/h (2 Bft)
19/12/2011 16:40 5,1 C 90 % 1020,2 hPa 0,0 mm 4,0 km/h (1 Bft) O-SO 247 0 min 0 W/m 3,6 C 5,1 C 9,0 km/h (2 Bft)
19/12/2011 16:45 5,1 C 90 % 1020,1 hPa 0,0 mm 8,6 km/h (2 Bft) S-SO 202 0 min 0 W/m 3,6 C 3,1 C 13,7 km/h (3 Bft)
19/12/2011 16:50 5,1 C 90 % 1020,2 hPa 0,0 mm 7,6 km/h (2 Bft) S-SO 202 0 min 0 W/m 3,6 C 3,4 C 9,7 km/h (2 Bft)
19/12/2011 16:55 5,0 C 90 % 1020,1 hPa 0,0 mm 8,3 km/h (2 Bft) SO 225 0 min 0 W/m 3,5 C 3,1 C 9,4 km/h (2 Bft)
19/12/2011 17:00 4,9 C 91 % 1020,1 hPa 0,0 mm 7,6 km/h (2 Bft) S-SO 202 0 min 0 W/m 3,6 C 3,1 C 8,6 km/h (2 Bft)
19/12/2011 17:05 4,9 C 91 % 1020,2 hPa 0,0 mm 4,3 km/h (1 Bft) S-SO 202 0 min 0 W/m 3,6 C 4,9 C 7,6 km/h (2 Bft)
19/12/2011 17:10 4,8 C 91 % 1020,2 hPa 0,0 mm 3,2 km/h (1 Bft) S-SO 202 0 min 0 W/m 3,5 C 4,8 C 4,3 km/h (1 Bft)
19/12/2011 17:15 4,8 C 92 % 1020,2 hPa 0,0 mm 4,3 km/h (1 Bft) S 180 0 min 0 W/m 3,6 C 4,8 C 9,4 km/h (2 Bft)
19/12/2011 17:20 4,7 C 92 % 1020,1 hPa 0,0 mm 4,7 km/h (1 Bft) SO 225 0 min 0 W/m 3,5 C 3,9 C 6,8 km/h (2 Bft)
19/12/2011 17:25 4,6 C 92 % 1020,2 hPa 0,1 mm 4,3 km/h (1 Bft) SO 225 0 min 0 W/m 3,4 C 4,6 C 8,3 km/h (2 Bft)
19/12/2011 17:30 4,6 C 92 % 1020,2 hPa 0,0 mm 5,4 km/h (2 Bft) SO 225 0 min 0 W/m 3,4 C 3,5 C 5,4 km/h (2 Bft)
19/12/2011 17:35 4,5 C 92 % 1020,2 hPa 0,0 mm 5,4 km/h (2 Bft) S-SO 202 0 min 0 W/m 3,3 C 3,4 C 8,6 km/h (2 Bft)
19/12/2011 17:40 4,5 C 92 % 1020,3 hPa 0,0 mm 5,8 km/h (2 Bft) S-SO 202 0 min 0 W/m 3,3 C 3,2 C 8,3 km/h (2 Bft)
19/12/2011 17:45 4,4 C 92 % 1020,3 hPa 0,0 mm 5,8 km/h (2 Bft) N 360 0 min 0 W/m 3,2 C 3,1 C 5,8 km/h (2 Bft)
19/12/2011 17:50 4,4 C 93 % 1020,2 hPa 0,1 mm 4,3 km/h (1 Bft) S-SE 157 0 min 0 W/m 3,4 C 4,4 C 7,2 km/h (2 Bft)
19/12/2011 17:55 4,4 C 93 % 1020,2 hPa 0,0 mm 3,6 km/h (1 Bft) SO 225 0 min 0 W/m 3,4 C 4,4 C 6,1 km/h (2 Bft)
19/12/2011 18:00 4,4 C 93 % 1020,2 hPa 0,0 mm 3,6 km/h (1 Bft) SO 225 0 min 0 W/m 3,4 C 4,4 C 6,5 km/h (2 Bft)
19/12/2011 18:05 4,3 C 93 % 1020,3 hPa 0,1 mm 3,2 km/h (1 Bft) SO 225 0 min 0 W/m 3,3 C 4,3 C 6,5 km/h (2 Bft)
19/12/2011 18:10 4,3 C 93 % 1020,2 hPa 0,0 mm 2,9 km/h (1 Bft) SO 225 0 min 0 W/m 3,3 C 4,3 C 4,7 km/h (1 Bft)
19/12/2011 18:15 4,3 C 93 % 1020,2 hPa 0,0 mm 1,4 km/h (1 Bft) S-SO 202 0 min 0 W/m 3,3 C 4,3 C 3,2 km/h (1 Bft)
19/12/2011 18:20 4,3 C 94 % 1020,2 hPa 0,1 mm 3,6 km/h (1 Bft) O-SO 247 0 min 0 W/m 3,4 C 4,3 C 4,3 km/h (1 Bft)
19/12/2011 18:25 4,3 C 94 % 1020,3 hPa 0,0 mm 2,5 km/h (1 Bft) O-SO 247 0 min 0 W/m 3,4 C 4,3 C 6,1 km/h (2 Bft)
19/12/2011 18:30 4,3 C 94 % 1020,4 hPa 0,1 mm 4,7 km/h (1 Bft) SO 225 0 min 0 W/m 3,4 C 3,4 C 8,3 km/h (2 Bft)
19/12/2011 18:35 4,3 C 94 % 1020,4 hPa 0,0 mm 7,9 km/h (2 Bft) O-SO 247 0 min 0 W/m 3,4 C 2,3 C 10,1 km/h (2 Bft)
19/12/2011 18:40 4,3 C 94 % 1020,3 hPa 0,0 mm 5,8 km/h (2 Bft) S-SO 202 0 min 0 W/m 3,4 C 3,0 C 10,8 km/h (2 Bft)
19/12/2011 18:45 4,3 C 94 % 1020,2 hPa 0,1 mm 4,3 km/h (1 Bft) S-SO 202 0 min 0 W/m 3,4 C 4,3 C 9,4 km/h (2 Bft)
19/12/2011 18:50 4,3 C 94 % 1020,2 hPa 0,0 mm 5,0 km/h (1 Bft) SO 225 0 min 0 W/m 3,4 C 3,3 C 8,6 km/h (2 Bft)
19/12/2011 18:55 4,2 C 94 % 1020,2 hPa 0,0 mm 4,3 km/h (1 Bft) S-SO 202 0 min 0 W/m 3,3 C 4,2 C 7,2 km/h (2 Bft)
19/12/2011 19:00 4,2 C 94 % 1020,1 hPa 0,1 mm 3,2 km/h (1 Bft) S-SO 202 0 min 0 W/m 3,3 C 4,2 C 6,1 km/h (2 Bft)
19/12/2011 19:05 4,2 C 94 % 1020,1 hPa 0,0 mm 2,5 km/h (1 Bft) S-SO 202 0 min 0 W/m 3,3 C 4,2 C 4,3 km/h (1 Bft)
19/12/2011 19:10 4,2 C 94 % 1020,3 hPa 0,1 mm 2,5 km/h (1 Bft) S-SO 202 0 min 0 W/m 3,3 C 4,2 C 6,5 km/h (2 Bft)
19/12/2011 19:15 4,2 C 94 % 1020,1 hPa 0,1 mm 2,9 km/h (1 Bft) S-SO 202 0 min 0 W/m 3,3 C 4,2 C 4,3 km/h (1 Bft)
19/12/2011 19:20 4,1 C 94 % 1020,1 hPa 0,0 mm 4,7 km/h (1 Bft) O-SO 247 0 min 0 W/m 3,2 C 3,2 C 7,6 km/h (2 Bft)
19/12/2011 19:25 4,1 C 94 % 1020,1 hPa 0,1 mm 6,5 km/h (2 Bft) SO 225 0 min 0 W/m 3,2 C 2,5 C 11,2 km/h (2 Bft)
19/12/2011 19:30 4,1 C 94 % 1020,1 hPa 0,0 mm 6,5 km/h (2 Bft) S 180 0 min 0 W/m 3,2 C 2,5 C 12,2 km/h (2 Bft)
19/12/2011 19:35 4,1 C 94 % 1020,0 hPa 0,0 mm 4,7 km/h (1 Bft) SO 225 0 min 0 W/m 3,2 C 3,2 C 8,6 km/h (2 Bft)
19/12/2011 19:40 4,2 C 94 % 1020,1 hPa 0,1 mm 9,4 km/h (2 Bft) SO 225 0 min 0 W/m 3,3 C 1,8 C 14,8 km/h (3 Bft)
19/12/2011 19:45 4,2 C 94 % 1020,1 hPa 0,0 mm 3,6 km/h (1 Bft) S-SO 202 0 min 0 W/m 3,3 C 4,2 C 6,8 km/h (2 Bft)
19/12/2011 19:50 4,2 C 94 % 1020,0 hPa 0,0 mm 4,7 km/h (1 Bft) SO 225 0 min 0 W/m 3,3 C 3,3 C 7,6 km/h (2 Bft)
19/12/2011 19:55 4,2 C 94 % 1019,9 hPa 0,0 mm 4,7 km/h (1 Bft) SO 225 0 min 0 W/m 3,3 C 3,3 C 6,8 km/h (2 Bft)
19/12/2011 20:00 4,2 C 94 % 1019,8 hPa 0,1 mm 5,4 km/h (2 Bft) SO 225 0 min 0 W/m 3,3 C 3,0 C 6,5 km/h (2 Bft)
19/12/2011 20:05 4,2 C 94 % 1019,7 hPa 0,0 mm 8,6 km/h (2 Bft) SO 225 0 min 0 W/m 3,3 C 2,0 C 11,5 km/h (2 Bft)
19/12/2011 20:10 4,2 C 94 % 1019,6 hPa 0,0 mm 6,8 km/h (2 Bft) S-SO 202 0 min 0 W/m 3,3 C 2,5 C 13,7 km/h (3 Bft)
19/12/2011 20:15 4,2 C 94 % 1019,5 hPa 0,0 mm 9,4 km/h (2 Bft) S-SO 202 0 min 0 W/m 3,3 C 1,8 C 12,2 km/h (2 Bft)
19/12/2011 20:20 4,1 C 94 % 1019,2 hPa 0,1 mm 6,5 km/h (2 Bft) O-SO 247 0 min 0 W/m 3,2 C 2,5 C 8,3 km/h (2 Bft)
19/12/2011 20:25 4,1 C 94 % 1019,2 hPa 0,0 mm 6,8 km/h (2 Bft) S-SO 202 0 min 0 W/m 3,2 C 2,4 C 11,5 km/h (2 Bft)
19/12/2011 20:30 4,2 C 94 % 1019,3 hPa 0,0 mm 8,6 km/h (2 Bft) SO 225 0 min 0 W/m 3,3 C 2,0 C 13,3 km/h (3 Bft)
19/12/2011 20:35 4,2 C 94 % 1019,4 hPa 0,0 mm 10,4 km/h (2 Bft) SO 225 0 min 0 W/m 3,3 C 1,6 C 13,3 km/h (3 Bft)
19/12/2011 20:40 4,2 C 94 % 1019,4 hPa 0,0 mm 6,5 km/h (2 Bft) SO 225 0 min 0 W/m 3,3 C 2,6 C 11,9 km/h (2 Bft)
19/12/2011 20:45 4,2 C 94 % 1019,2 hPa 0,1 mm 9,0 km/h (2 Bft) S-SO 202 0 min 0 W/m 3,3 C 1,9 C 11,5 km/h (2 Bft)
19/12/2011 20:50 4,2 C 94 % 1019,2 hPa 0,0 mm 4,0 km/h (1 Bft) SO 225 0 min 0 W/m 3,3 C 4,2 C 7,2 km/h (2 Bft)
19/12/2011 20:55 4,2 C 94 % 1019,1 hPa 0,0 mm 6,8 km/h (2 Bft) SO 225 0 min 0 W/m 3,3 C 2,5 C 11,9 km/h (2 Bft)
19/12/2011 21:00 4,2 C 94 % 1019,0 hPa 0,0 mm 5,0 km/h (1 Bft) S-SO 202 0 min 0 W/m 3,3 C 3,2 C 10,1 km/h (2 Bft)
19/12/2011 21:05 4,1 C 94 % 1018,9 hPa 0,1 mm 10,4 km/h (2 Bft) S-SO 202 0 min 0 W/m 3,2 C 1,5 C 14,0 km/h (3 Bft)
19/12/2011 21:10 4,2 C 94 % 1019,0 hPa 0,0 mm 8,6 km/h (2 Bft) SO 225 0 min 0 W/m 3,3 C 2,0 C 11,9 km/h (2 Bft)
19/12/2011 21:15 4,1 C 94 % 1019,0 hPa 0,0 mm 6,8 km/h (2 Bft) SO 225 0 min 0 W/m 3,2 C 2,4 C 9,0 km/h (2 Bft)
19/12/2011 21:20 4,1 C 94 % 1019,0 hPa 0,1 mm 6,5 km/h (2 Bft) SO 225 0 min 0 W/m 3,2 C 2,5 C 10,1 km/h (2 Bft)
19/12/2011 21:25 4,1 C 94 % 1018,9 hPa 0,0 mm 9,0 km/h (2 Bft) S-SO 202 0 min 0 W/m 3,2 C 1,8 C 12,2 km/h (2 Bft)
19/12/2011 21:30 4,1 C 94 % 1018,8 hPa 0,0 mm 14,0 km/h (3 Bft) SO 225 0 min 0 W/m 3,2 C 0,8 C 18,0 km/h (3 Bft)
19/12/2011 21:35 4,1 C 94 % 1018,7 hPa 0,0 mm 9,0 km/h (2 Bft) S-SO 202 0 min 0 W/m 3,2 C 1,8 C 9,7 km/h (2 Bft)
19/12/2011 21:40 4,1 C 94 % 1018,8 hPa 0,1 mm 7,6 km/h (2 Bft) SO 225 0 min 0 W/m 3,2 C 2,2 C 8,3 km/h (2 Bft)
19/12/2011 21:45 4,1 C 94 % 1018,8 hPa 0,1 mm 7,9 km/h (2 Bft) S-SO 202 0 min 0 W/m 3,2 C 2,1 C 10,4 km/h (2 Bft)
19/12/2011 21:50 4,1 C 94 % 1018,9 hPa 0,0 mm 11,9 km/h (2 Bft) SO 225 0 min 0 W/m 3,2 C 1,2 C 15,1 km/h (3 Bft)
19/12/2011 21:55 4,1 C 95 % 1018,9 hPa 0,0 mm 11,2 km/h (2 Bft) SO 225 0 min 0 W/m 3,4 C 1,3 C 15,5 km/h (3 Bft)
19/12/2011 22:00 4,1 C 95 % 1018,7 hPa 0,0 mm 9,7 km/h (2 Bft) O-SO 247 0 min 0 W/m 3,4 C 1,7 C 14,8 km/h (3 Bft)
19/12/2011 22:05 4,1 C 95 % 1018,7 hPa 0,0 mm 9,4 km/h (2 Bft) SO 225 0 min 0 W/m 3,4 C 1,7 C 14,8 km/h (3 Bft)
19/12/2011 22:10 4,1 C 95 % 1018,8 hPa 0,0 mm 7,9 km/h (2 Bft) S-SO 202 0 min 0 W/m 3,4 C 2,1 C 10,8 km/h (2 Bft)
19/12/2011 22:15 4,1 C 95 % 1018,7 hPa 0,0 mm 10,8 km/h (2 Bft) SO 225 0 min 0 W/m 3,4 C 1,4 C 14,0 km/h (3 Bft)
19/12/2011 22:20 4,1 C 95 % 1018,6 hPa 0,0 mm 7,2 km/h (2 Bft) O-SO 247 0 min 0 W/m 3,4 C 2,3 C 12,6 km/h (3 Bft)
19/12/2011 22:25 4,2 C 95 % 1018,5 hPa 0,0 mm 9,4 km/h (2 Bft) SO 225 0 min 0 W/m 3,5 C 1,8 C 11,5 km/h (2 Bft)
19/12/2011 22:30 4,2 C 95 % 1018,4 hPa 0,0 mm 11,9 km/h (2 Bft) SO 225 0 min 0 W/m 3,5 C 1,3 C 14,4 km/h (3 Bft)
19/12/2011 22:35 4,3 C 95 % 1018,3 hPa 0,0 mm 12,6 km/h (3 Bft) S-SO 202 0 min 0 W/m 3,6 C 1,3 C 12,6 km/h (3 Bft)
19/12/2011 22:40 4,3 C 95 % 1018,2 hPa 0,0 mm 7,9 km/h (2 Bft) SO 225 0 min 0 W/m 3,6 C 2,3 C 12,2 km/h (2 Bft)
19/12/2011 22:45 4,3 C 95 % 1018,2 hPa 0,0 mm 10,1 km/h (2 Bft) S-SO 202 0 min 0 W/m 3,6 C 1,8 C 17,3 km/h (3 Bft)
19/12/2011 22:50 4,4 C 95 % 1018,2 hPa 0,0 mm 9,4 km/h (2 Bft) SO 225 0 min 0 W/m 3,7 C 2,1 C 15,1 km/h (3 Bft)
19/12/2011 22:55 4,5 C 95 % 1018,0 hPa 0,0 mm 9,7 km/h (2 Bft) SO 225 0 min 0 W/m 3,8 C 2,1 C 13,3 km/h (3 Bft)
19/12/2011 23:00 4,5 C 95 % 1018,0 hPa 0,0 mm 9,4 km/h (2 Bft) SO 225 0 min 0 W/m 3,8 C 2,2 C 13,7 km/h (3 Bft)
19/12/2011 23:05 4,6 C 95 % 1018,0 hPa 0,0 mm 9,0 km/h (2 Bft) O-SO 247 0 min 0 W/m 3,9 C 2,4 C 15,8 km/h (3 Bft)
19/12/2011 23:10 4,6 C 95 % 1017,8 hPa 0,1 mm 11,5 km/h (2 Bft) S-SO 202 0 min 0 W/m 3,9 C 1,9 C 16,2 km/h (3 Bft)
19/12/2011 23:15 4,7 C 95 % 1017,8 hPa 0,0 mm 14,0 km/h (3 Bft) S 180 0 min 0 W/m 4,0 C 1,5 C 20,5 km/h (4 Bft)
19/12/2011 23:20 4,8 C 95 % 1017,8 hPa 0,0 mm 12,2 km/h (2 Bft) S-SO 202 0 min 0 W/m 4,1 C 2,0 C 13,0 km/h (3 Bft)
19/12/2011 23:25 4,8 C 95 % 1017,7 hPa 0,1 mm 13,0 km/h (3 Bft) SO 225 0 min 0 W/m 4,1 C 1,8 C 19,8 km/h (3 Bft)
19/12/2011 23:30 4,9 C 95 % 1017,7 hPa 0,0 mm 14,4 km/h (3 Bft) S-SO 202 0 min 0 W/m 4,2 C 1,7 C 20,2 km/h (4 Bft)
19/12/2011 23:35 4,9 C 95 % 1017,5 hPa 0,0 mm 16,2 km/h (3 Bft) SO 225 0 min 0 W/m 4,2 C 1,4 C 16,9 km/h (3 Bft)
19/12/2011 23:40 4,9 C 95 % 1017,4 hPa 0,0 mm 11,2 km/h (2 Bft) S-SO 202 0 min 0 W/m 4,2 C 2,3 C 16,9 km/h (3 Bft)
19/12/2011 23:45 5,1 C 95 % 1017,3 hPa 0,0 mm 13,7 km/h (3 Bft) S-SO 202 0 min 0 W/m 4,4 C 2,1 C 16,9 km/h (3 Bft)
19/12/2011 23:50 5,2 C 95 % 1017,1 hPa 0,0 mm 12,2 km/h (2 Bft) SO 225 0 min 0 W/m 4,5 C 2,5 C 15,1 km/h (3 Bft)
19/12/2011 23:55 5,2 C 95 % 1017,2 hPa 0,0 mm 11,5 km/h (2 Bft) O 270 0 min 0 W/m 4,5 C 2,6 C 17,3 km/h (3 Bft)
_ Min-Heure 09:15 15:20 23:50 - 15:00 - - - - 00:00 00:55 14:45
Minimum _ 0,8 C 88 % 1017,1 hPa - 0,0 km/h (0 Bft) - - - - -0,1 C -0,7 C 0,0 km/h (0 Bft)
_ Max-Heure 15:00 23:55 11:20 23:25 23:35 - - 23:55 23:55 23:55 15:00 23:15
Maximum _ 5,4 C 95 % 1022,0 hPa 0,1 mm 16,2 km/h
SO (3 Bft)
- - 0 min 0 W/m 4,5 C 5,4 C 20,5 km/h
S (4 Bft)
Moyenne _ 3,1 C 93 % 1020,1 hPa #2,5 mm 3,2 km/h (1 Bft) SO - #0 min. 0 W/m 2,1 C 2,6 C 5,4 km/h (2 Bft)
Saint Bonnet de Bellac- Haute Vienne - France